AGR916 EHGG-EGNO

Flight info

Callsign AGR916
Flight time N/A
Altitude 34000
Route EHGG/23 ENKO2D ENKOS DCT RAVLO Y70 POL DCT EGNO/07
Aircraft E145/M-SABDFGRW/S

Departure

Time 2026-04-23 16:47
Airport Groningen Airport Eelde (EHGG)

Arrival

Time N/A
Airport Warton Aerodrome (EGNO)
Time Latitude Longitude Altitude Speed Heading
2026-04-23 16:29 53.12783 6.58504 18 ft 0 kts
2026-04-23 16:39 53.12783 6.58505 18 ft 0 kts
2026-04-23 16:40 53.12774 6.58504 19 ft 2 kts 360°
2026-04-23 16:40 53.12758 6.58506 18 ft 2 kts 350°
2026-04-23 16:40 53.12744 6.58512 18 ft 2 kts 341°
2026-04-23 16:40 53.12730 6.58521 18 ft 2 kts 337°
2026-04-23 16:41 53.12717 6.58529 19 ft 1 kts
2026-04-23 16:41 53.12707 6.58521 19 ft 1 kts 53°
2026-04-23 16:41 53.12705 6.58517 19 ft 0 kts 52°
2026-04-23 16:43 53.12711 6.58529 18 ft 4 kts 51°
2026-04-23 16:43 53.12736 6.58601 18 ft 7 kts 82°
2026-04-23 16:43 53.12709 6.58694 18 ft 10 kts 127°
2026-04-23 16:43 53.12655 6.58807 18 ft 14 kts 130°
2026-04-23 16:44 53.12593 6.58932 18 ft 12 kts 135°
2026-04-23 16:44 53.12513 6.58987 18 ft 7 kts 168°
2026-04-23 16:44 53.12464 6.58957 18 ft 10 kts 227°
2026-04-23 16:44 53.12450 6.58929 18 ft 0 kts 231°
2026-04-23 16:46 53.12449 6.58928 18 ft 1 kts 231°
2026-04-23 16:46 53.12347 6.58708 18 ft 69 kts 234°
2026-04-23 16:46 53.11888 6.57727 139 ft 135 kts 239°
2026-04-23 16:47 53.11391 6.56564 746 ft 148 kts 237°
2026-04-23 16:47 53.10659 6.55107 1698 ft 158 kts 239°
2026-04-23 16:47 53.09975 6.53687 2673 ft 163 kts 240°
2026-04-23 16:47 53.09469 6.52618 3277 ft 175 kts 240°
2026-04-23 16:48 53.08599 6.50298 4160 ft 204 kts 263°
2026-04-23 16:48 53.08389 6.47946 4947 ft 228 kts 268°
2026-04-23 16:48 53.07962 6.43413 7249 ft 237 kts 267°
2026-04-23 16:49 53.07713 6.40983 8386 ft 243 kts 261°
2026-04-23 16:49 53.06977 6.38411 9545 ft 255 kts 244°
2026-04-23 16:49 53.06126 6.35895 10700 ft 259 kts 245°
2026-04-23 16:49 53.04962 6.32426 11853 ft 282 kts 244°
2026-04-23 16:50 53.03958 6.29437 11875 ft 329 kts 244°
2026-04-23 16:50 53.03175 6.27111 11905 ft 357 kts 243°
2026-04-23 16:50 53.01916 6.23382 12418 ft 378 kts 243°
2026-04-23 16:50 53.00612 6.19521 13488 ft 381 kts 243°
2026-04-23 16:51 52.99309 6.15668 14456 ft 385 kts 243°
2026-04-23 16:51 52.97534 6.10429 15679 ft 390 kts 242°
2026-04-23 16:51 52.96653 6.07833 16255 ft 393 kts 242°
2026-04-23 16:51 52.94840 6.02500 17324 ft 399 kts 242°
2026-04-23 16:52 52.93940 5.99858 17820 ft 401 kts 241°
2026-04-23 16:52 52.92087 5.94425 18816 ft 406 kts 241°
2026-04-23 16:52 52.91172 5.91746 19312 ft 408 kts 241°
2026-04-23 16:52 52.89778 5.87672 20001 ft 411 kts 240°
2026-04-23 16:53 52.88232 5.83162 20675 ft 415 kts 240°
2026-04-23 16:53 52.87212 5.80192 21132 ft 417 kts 240°
2026-04-23 16:53 52.85591 5.75478 21819 ft 421 kts 240°
2026-04-23 16:53 52.84141 5.71266 22394 ft 424 kts 240°
2026-04-23 16:54 52.82684 5.67044 22941 ft 427 kts 240°
2026-04-23 16:54 52.81218 5.62800 23447 ft 430 kts 240°
2026-04-23 16:54 52.79718 5.58466 23988 ft 432 kts 240°
2026-04-23 16:54 52.78224 5.54158 24489 ft 435 kts 239°
2026-04-23 16:55 52.76729 5.49854 24944 ft 438 kts 239°
2026-04-23 16:55 52.74703 5.44031 25551 ft 442 kts 239°
2026-04-23 16:55 52.73681 5.41101 25858 ft 443 kts 239°
2026-04-23 16:55 52.71653 5.35292 26582 ft 443 kts 239°
2026-04-23 16:56 52.70686 5.32374 26947 ft 444 kts 241°
2026-04-23 16:56 52.69610 5.27958 27486 ft 445 kts 250°
2026-04-23 16:56 52.68985 5.23735 27986 ft 445 kts 258°
2026-04-23 16:56 52.68896 5.22828 28092 ft 445 kts 259°